Simultaneous Nadir Overpasses (SNOs) Predictions

Prediction of SNOs between NOAA-20 and METOP-B Satellite Orbit:

Table of predicted SNOs for the next 14.0 days since TLE Epoch: 7/6/2022
Index Date (NOAA-20) Time (NOAA-20) Lat,Lon (NOAA-20) SZA (NOAA-20 ) Date (METOP-B) Time (METOP-B) Lat,Lon (METOP-B) SZA (METOP-B ) Distance(km) Time Diff (sec)
1 07/19/2022 14:10:20 73.47, -42.23 52.98 07/19/2022 14:11:27 73.39, -39.69 52.74 81.04 67
2 07/19/2022 15:01:02 -73.36, 125.35 127.15 07/19/2022 15:02:11 -73.31, 127.44 127.34 67.08 69
3 07/19/2022 15:51:44 73.18, -66.95 52.66 07/19/2022 15:52:54 73.12, -65.64 52.51 42.95 70
4 07/19/2022 16:42:26 -73.06, 100.62 127.47 07/19/2022 16:43:38 -73.04, 101.51 127.56 29.05 72
5 07/19/2022 17:33:08 72.89, -91.69 52.35 07/19/2022 17:34:21 72.85, -91.56 52.28 6.18 73
6 07/19/2022 18:23:51 -72.82, 75.76 127.72 07/19/2022 18:25:04 -72.81, 75.70 127.74 2.32 73
7 07/19/2022 19:14:37 72.84,-116.97 52.31 07/19/2022 19:15:43 72.82,-116.95 52.28 2.31 66
8 07/19/2022 20:05:21 -72.83, 50.37 127.70 07/19/2022 20:06:25 -72.84, 50.42 127.71 2.13 64
9 07/19/2022 20:56:06 72.80,-142.26 52.28 07/19/2022 20:57:05 72.80,-142.33 52.27 2.36 59
10 07/19/2022 21:46:51 -72.84, 24.98 127.68 07/19/2022 21:47:47 -72.82, 25.03 127.71 2.37 56
11 07/19/2022 22:37:36 72.81,-167.65 52.30 07/19/2022 22:38:26 72.83,-167.61 52.31 2.93 50
12 07/19/2022 23:28:20 -72.79, -0.30 127.71 07/19/2022 23:29:09 -72.80, -0.35 127.72 1.77 49
13 07/20/2022 00:19:06 72.81, 166.96 52.32 07/20/2022 00:19:48 72.81, 167.01 52.30 1.61 42
14 07/20/2022 01:09:50 -72.80, -25.69 127.69 07/20/2022 01:10:31 -72.78, -25.74 127.72 3.00 41



Historial Predications of SNOs between NOAA-20 and METOP-B
